• In Uzbekistan
  • List of Countries
  • For 7 days
  • Water Temperature
  • Weather Map
  • Weather Widgets
  • user-avatar
    Login

    Hourly Weather Qala i Naw

    Today, 30 May, Saturday

    Time Temperature Precipitation Wind Pressure Humidity
    00:00 +25°C° 0 mm 1 mps 679 mmHg 24%
    01:00 +24°C° 0 mm 1 mps 679 mmHg 24%
    02:00 +24°C° 0 mm 1 mps 679 mmHg 25%
    03:00 +23°C° 0 mm 1 mps 678 mmHg 25%
    04:00 +23°C° 0 mm 1 mps 678 mmHg 22%
    05:00 +25°C° 0 mm 1 mps 679 mmHg 20%
    06:00 +26°C° 0 mm 1 mps 680 mmHg 18%
    07:00 +28°C° 0 mm 1 mps 680 mmHg 16%
    08:00 +29°C° 0 mm 1 mps 680 mmHg 15%
    09:00 +31°C° 0 mm 2 mps 681 mmHg 15%
    10:00 +33°C° 0 mm 3 mps 681 mmHg 15%
    11:00 +34°C° 0 mm 4 mps 681 mmHg 14%
    12:00 +35°C° 0 mm 5 mps 681 mmHg 13%
    13:00 +36°C° 0 mm 6 mps 681 mmHg 12%
    14:00 +36°C° 0 mm 6 mps 681 mmHg 11%
    15:00 +36°C° 0 mm 7 mps 680 mmHg 11%
    16:00 +37°C° 0 mm 8 mps 680 mmHg 10%
    17:00 +34°C° 0 mm 7 mps 680 mmHg 10%
    18:00 +33°C° 0 mm 6 mps 680 mmHg 11%
    19:00 +30°C° 0 mm 6 mps 680 mmHg 11%
    20:00 +28°C° 0 mm 4 mps 680 mmHg 12%
    21:00 +27°C° 0 mm 3 mps 680 mmHg 13%
    22:00 +25°C° 0 mm 1 mps 680 mmHg 14%
    23:00 +24°C° 0 mm 1 mps 680 mmHg 14%

    Tomorrow, 31 May, Sunday

    Time Temperature Precipitation Wind Pressure Humidity
    00:00 +24°C° 0 mm 1 mps 680 mmHg 15%
    01:00 +23°C° 0 mm 1 mps 680 mmHg 15%
    02:00 +22°C° 0 mm 1 mps 680 mmHg 15%
    03:00 +19°C° 0 mm 0 mps 679 mmHg 16%
    04:00 +18°C° 0 mm 0 mps 679 mmHg 16%
    05:00 +21°C° 0 mm 0 mps 680 mmHg 14%
    06:00 +23°C° 0 mm 0 mps 681 mmHg 11%
    07:00 +25°C° 0 mm 0 mps 681 mmHg 9%
    08:00 +28°C° 0 mm 1 mps 681 mmHg 9%
    09:00 +30°C° 0 mm 2 mps 681 mmHg 8%
    10:00 +31°C° 0 mm 2 mps 682 mmHg 7%
    11:00 +33°C° 0 mm 3 mps 681 mmHg 7%
    12:00 +34°C° 0 mm 4 mps 681 mmHg 6%
    13:00 +35°C° 0 mm 4 mps 681 mmHg 6%
    14:00 +35°C° 0 mm 5 mps 681 mmHg 6%
    15:00 +35°C° 0 mm 5 mps 681 mmHg 6%
    16:00 +36°C° 0 mm 6 mps 681 mmHg 6%
    17:00 +34°C° 0 mm 5 mps 681 mmHg 7%
    18:00 +32°C° 0 mm 4 mps 680 mmHg 8%
    19:00 +30°C° 0 mm 3 mps 680 mmHg 9%
    20:00 +28°C° 0 mm 3 mps 680 mmHg 11%
    21:00 +27°C° 0 mm 2 mps 681 mmHg 12%
    22:00 +25°C° 0 mm 1 mps 681 mmHg 13%
    23:00 +25°C° 0 mm 1 mps 680 mmHg 14%

    Day after tomorrow, 1 June, Monday

    Time Temperature Precipitation Wind Pressure Humidity
    00:00 +24°C° 0 mm 1 mps 680 mmHg 15%
    01:00 +23°C° 0 mm 1 mps 680 mmHg 16%
    02:00 +22°C° 0 mm 1 mps 679 mmHg 17%
    03:00 +22°C° 0 mm 1 mps 679 mmHg 17%
    04:00 +19°C° 0 mm 0 mps 679 mmHg 18%
    05:00 +21°C° 0 mm 0 mps 680 mmHg 16%
    06:00 +24°C° 0 mm 0 mps 681 mmHg 13%
    07:00 +26°C° 0 mm 0 mps 681 mmHg 11%
    08:00 +30°C° 0 mm 1 mps 682 mmHg 10%
    09:00 +31°C° 0 mm 2 mps 682 mmHg 9%
    10:00 +32°C° 0 mm 2 mps 682 mmHg 8%
    11:00 +34°C° 0 mm 3 mps 682 mmHg 8%
    12:00 +35°C° 0 mm 4 mps 682 mmHg 7%
    13:00 +36°C° 0 mm 4 mps 682 mmHg 6%
    14:00 +36°C° 0 mm 5 mps 682 mmHg 7%
    15:00 +36°C° 0 mm 5 mps 681 mmHg 7%
    16:00 +36°C° 0 mm 5 mps 681 mmHg 7%
    17:00 +35°C° 0 mm 4 mps 681 mmHg 8%
    18:00 +33°C° 0 mm 3 mps 681 mmHg 10%
    19:00 +30°C° 0 mm 2 mps 681 mmHg 12%
    20:00 +29°C° 0 mm 2 mps 681 mmHg 13%
    21:00 +28°C° 0 mm 1 mps 681 mmHg 15%
    22:00 +26°C° 0 mm 1 mps 681 mmHg 16%
    23:00 +26°C° 0 mm 1 mps 680 mmHg 17%

    2 June, Tuesday

    Time Temperature Precipitation Wind Pressure Humidity
    00:00 +25°C° 0 mm 1 mps 680 mmHg 18%
    01:00 +24°C° 0 mm 1 mps 679 mmHg 18%
    02:00 +24°C° 0 mm 1 mps 679 mmHg 19%
    03:00 +23°C° 0 mm 1 mps 679 mmHg 19%
    04:00 +21°C° 0 mm 0 mps 679 mmHg 20%
    05:00 +23°C° 0 mm 0 mps 680 mmHg 17%
    06:00 +25°C° 0 mm 0 mps 680 mmHg 14%
    07:00 +28°C° 0 mm 0 mps 681 mmHg 12%
    08:00 +31°C° 0 mm 1 mps 681 mmHg 11%
    09:00 +32°C° 0 mm 2 mps 682 mmHg 10%
    10:00 +35°C° 0 mm 3 mps 682 mmHg 9%
    11:00 +36°C° 0 mm 4 mps 682 mmHg 8%
    12:00 +37°C° 0 mm 5 mps 682 mmHg 8%
    13:00 +39°C° 0 mm 6 mps 681 mmHg 7%
    14:00 +39°C° 0 mm 6 mps 681 mmHg 7%
    15:00 +39°C° 0 mm 6 mps 681 mmHg 7%
    16:00 +39°C° 0 mm 6 mps 681 mmHg 7%
    17:00 +36°C° 0 mm 5 mps 681 mmHg 8%
    18:00 +35°C° 0 mm 4 mps 681 mmHg 9%
    19:00 +33°C° 0 mm 3 mps 680 mmHg 10%
    20:00 +30°C° 0 mm 3 mps 680 mmHg 12%
    21:00 +29°C° 0 mm 2 mps 680 mmHg 14%
    22:00 +27°C° 0 mm 1 mps 680 mmHg 16%
    23:00 +26°C° 0 mm 1 mps 679 mmHg 16%

    3 June, Wednesday

    Time Temperature Precipitation Wind Pressure Humidity
    00:00 +26°C° 0 mm 1 mps 679 mmHg 17%
    01:00 +23°C° 0 mm 0 mps 679 mmHg 17%
    02:00 +22°C° 0 mm 0 mps 678 mmHg 18%
    03:00 +22°C° 0 mm 0 mps 678 mmHg 19%
    04:00 +21°C° 0 mm 0 mps 678 mmHg 19%
    05:00 +23°C° 0 mm 0 mps 679 mmHg 17%
    06:00 +26°C° 0 mm 0 mps 680 mmHg 14%
    07:00 +30°C° 0 mm 1 mps 680 mmHg 12%
    08:00 +32°C° 0 mm 2 mps 680 mmHg 11%
    09:00 +34°C° 0 mm 3 mps 681 mmHg 10%
    10:00 +36°C° 0 mm 4 mps 681 mmHg 9%
    11:00 +37°C° 0 mm 5 mps 680 mmHg 9%
    12:00 +39°C° 0 mm 6 mps 680 mmHg 8%
    13:00 +40°C° 0 mm 7 mps 680 mmHg 8%
    14:00 +40°C° 0 mm 7 mps 680 mmHg 8%
    15:00 +40°C° 0 mm 7 mps 680 mmHg 8%
    16:00 +40°C° 0 mm 7 mps 680 mmHg 7%
    17:00 +38°C° 0 mm 6 mps 679 mmHg 9%
    18:00 +35°C° 0 mm 5 mps 679 mmHg 10%
    19:00 +34°C° 0 mm 4 mps 679 mmHg 11%
    20:00 +31°C° 0 mm 3 mps 679 mmHg 12%
    21:00 +30°C° 0 mm 2 mps 679 mmHg 14%
    22:00 +28°C° 0 mm 1 mps 679 mmHg 16%
    23:00 +28°C° 0 mm 1 mps 679 mmHg 16%

    4 June, Thursday

    Time Temperature Precipitation Wind Pressure Humidity
    00:00 +27°C° 0 mm 1 mps 678 mmHg 17%
    01:00 +26°C° 0 mm 1 mps 678 mmHg 17%
    02:00 +25°C° 0 mm 1 mps 678 mmHg 18%
    03:00 +25°C° 0 mm 1 mps 678 mmHg 19%
    04:00 +22°C° 0 mm 0 mps 677 mmHg 20%
    05:00 +26°C° 0 mm 1 mps 678 mmHg 18%
    06:00 +29°C° 0 mm 1 mps 679 mmHg 15%
    07:00 +31°C° 0 mm 1 mps 680 mmHg 13%
    08:00 +34°C° 0 mm 2 mps 680 mmHg 11%
    09:00 +35°C° 0 mm 3 mps 680 mmHg 10%
    10:00 +37°C° 0 mm 4 mps 680 mmHg 9%
    11:00 +39°C° 0 mm 5 mps 680 mmHg 8%
    12:00 +40°C° 0 mm 6 mps 680 mmHg 8%
    13:00 +41°C° 0 mm 7 mps 680 mmHg 7%
    14:00 +41°C° 0 mm 7 mps 680 mmHg 7%
    15:00 +41°C° 0 mm 7 mps 680 mmHg 7%
    16:00 +41°C° 0 mm 8 mps 680 mmHg 7%
    17:00 +39°C° 0 mm 7 mps 680 mmHg 8%
    18:00 +36°C° 0 mm 6 mps 680 mmHg 9%
    19:00 +35°C° 0 mm 5 mps 680 mmHg 10%
    20:00 +33°C° 0 mm 4 mps 680 mmHg 11%
    21:00 +31°C° 0 mm 3 mps 680 mmHg 13%
    22:00 +29°C° 0 mm 2 mps 680 mmHg 15%
    23:00 +28°C° 0 mm 2 mps 680 mmHg 15%
    Show more